STARLINK-34505

导读 | 星芒AI

STARLINK-34505 是 SpaceX Starlink 卫星互联网项目中的一颗低轨卫星,属于第三代星链卫星(v1.5)。该卫星于2023年发射,旨在为全球用户提供高速、低延迟的宽带互联网服务。它运行在约540公里高的近地轨道,配备先进推进系统和激光通信设备,以提升网络连接效率和稳定性。作为星链星座的一部分,STARLINK-34505 有助于扩大覆盖范围,特别是在偏远和网络基础设施薄弱的地区。

基本信息
目录编号:
64490
目录名称:
STARLINK-34505
国际标识:
2025-133U
轨道中心:
EARTH
卫星名称:
STARLINK-34505
卫星全名:
STARLINK-34505
卫星状态:
在轨 (已飞行139 天)
发射日期:
2025-06-23 UTC
国别 :
美国 (US)
星等 :
--
轨道信息
数据来源 国际轨道数据
星历时间: 2025-11-09T01:57:12+0800
21小时前
查看轨道信息
半长轴: 6825.198km
偏心率: 0.0001452
轨道倾角: 53.161°
近地点辐角 84.433°
升交点赤经 319.128°
平近点角 275.684°
近地点: 446.071km
远地点: 448.055km
周期: 93.526分钟
每日圈数: 15.396782
详细信息
使用方式:
暂无
2D轨道图
3D轨道图
轨道高度分析图
轨道倾角分析图
轨道综合分析图
查看轨道综合分析图